Location: 22
(39.7117°N, 89.5929°W)
Time: 08:15:03
(UTC-05:00)

S-56A Canister/Altair - Pass Details

Date: 07 February 2023
Orbit: 638 x 2493 km, 38.9° (Epoch: 25 March)

Event Time Altitude Azimuth Distance (km) Brightness Sun altitude
Rises 13:32:38 0° 279° (W) 3,067 10.8 32.0°
Reaches altitude 10° 13:34:46 10° 275° (W) 2,252 10.2 31.8°
Maximum altitude 13:39:49 59° 196° (SSW) 1,035 9.5 31.4°
Drops below altitude 10° 13:47:01 10° 119° (ESE) 3,170 10.8 30.8°
Sets 13:50:31 0° 116° (ESE) 4,443 11.4 30.5°
